Location: Treviso
(45.6669°N, 12.2430°E)
Time: 01:25:40
(UTC+02:00)

ISS - Pass Details

Date: 18 September 2018
Orbit: 403 x 409 km, 51.6° (Epoch: 24 September)

Event Time Altitude Azimuth Distance (km) Brightness Sun altitude
Exits shadow 05:38:35 16° 205° (SSW) 1,148 -1.9 -13.5°
Drops below altitude 10° 05:39:59 10° 181° (S) 1,451 -1.2 -13.3°
Sets 05:42:30 0° 160° (SSE) 2,305 0.0 -12.9°
